Year,Month,Day,Hour,Minute,Value (Times are PST for temperature in C)
2010,07,09,00,00,19.90
2010,07,09,00,01,19.90
2010,07,09,00,02,19.80
2010,07,09,00,03,19.80
2010,07,09,00,04,19.80
2010,07,09,00,05,19.70
2010,07,09,00,06,19.70
2010,07,09,00,07,19.70
2010,07,09,00,08,19.70
2010,07,09,00,09,19.70
2010,07,09,00,10,19.70
2010,07,09,00,11,19.70
2010,07,09,00,12,19.70
2010,07,09,00,13,19.70
2010,07,09,00,14,19.60
2010,07,09,00,15,19.60
2010,07,09,00,16,19.60
2010,07,09,00,17,19.60
2010,07,09,00,18,19.60
2010,07,09,00,19,19.60
2010,07,09,00,20,19.60
2010,07,09,00,21,19.60
2010,07,09,00,22,19.60
2010,07,09,00,23,19.60
2010,07,09,00,24,19.60
2010,07,09,00,25,19.60
2010,07,09,00,26,19.50
2010,07,09,00,27,19.50
2010,07,09,00,28,19.50
2010,07,09,00,29,19.50
2010,07,09,00,30,19.50
2010,07,09,00,31,19.50
2010,07,09,00,32,19.40
2010,07,09,00,33,19.40
2010,07,09,00,34,19.40
2010,07,09,00,35,19.30
2010,07,09,00,36,19.30
2010,07,09,00,37,19.20
2010,07,09,00,38,19.20
2010,07,09,00,39,19.10
2010,07,09,00,40,19.10
2010,07,09,00,41,19.10
2010,07,09,00,42,19.10
2010,07,09,00,43,19.10
2010,07,09,00,44,19.00
2010,07,09,00,45,18.90
2010,07,09,00,46,18.90
2010,07,09,00,47,18.90
2010,07,09,00,48,18.90
2010,07,09,00,49,18.90
2010,07,09,00,50,18.90
2010,07,09,00,51,18.90
2010,07,09,00,52,18.90
2010,07,09,00,53,18.90
2010,07,09,00,54,18.90
2010,07,09,00,55,18.90
2010,07,09,00,56,18.90
2010,07,09,00,57,18.90
2010,07,09,00,58,18.90
2010,07,09,00,59,18.90
2010,07,09,01,00,18.90
2010,07,09,01,01,19.10
2010,07,09,01,02,19.10
2010,07,09,01,03,19.10
2010,07,09,01,04,19.00
2010,07,09,01,05,18.90
2010,07,09,01,06,18.90
2010,07,09,01,07,18.90
2010,07,09,01,08,18.90
2010,07,09,01,09,18.90
2010,07,09,01,10,18.90
2010,07,09,01,11,18.90
2010,07,09,01,12,18.90
2010,07,09,01,13,18.90
2010,07,09,01,14,18.90
2010,07,09,01,15,18.80
2010,07,09,01,16,18.80
2010,07,09,01,17,18.70
2010,07,09,01,18,18.60
2010,07,09,01,19,18.60
2010,07,09,01,20,18.50
2010,07,09,01,21,18.50
2010,07,09,01,22,18.50
2010,07,09,01,23,18.40
2010,07,09,01,24,18.40
2010,07,09,01,25,18.50
2010,07,09,01,26,18.40
2010,07,09,01,27,18.40
2010,07,09,01,28,18.40
2010,07,09,01,29,18.40
2010,07,09,01,30,18.40
2010,07,09,01,31,18.40
2010,07,09,01,32,18.40
2010,07,09,01,33,18.40
2010,07,09,01,34,18.40
2010,07,09,01,35,18.40
2010,07,09,01,36,18.40
2010,07,09,01,37,18.40
2010,07,09,01,38,18.40
2010,07,09,01,39,18.40
2010,07,09,01,40,18.40
2010,07,09,01,41,18.40
2010,07,09,01,42,18.40
2010,07,09,01,43,18.40
2010,07,09,01,44,18.40
2010,07,09,01,45,18.40
2010,07,09,01,46,18.30
2010,07,09,01,47,18.30
2010,07,09,01,48,18.20
2010,07,09,01,49,18.20
2010,07,09,01,50,18.20
2010,07,09,01,51,18.20
2010,07,09,01,52,18.20
2010,07,09,01,53,18.20
2010,07,09,01,54,18.20
2010,07,09,01,55,18.20
2010,07,09,01,56,18.20
2010,07,09,01,57,18.20
2010,07,09,01,58,18.20
2010,07,09,01,59,18.20
2010,07,09,02,00,18.20
2010,07,09,02,01,18.20
2010,07,09,02,02,18.20
2010,07,09,02,03,18.30
2010,07,09,02,04,18.30
2010,07,09,02,05,18.30
2010,07,09,02,06,18.30
2010,07,09,02,07,18.30
2010,07,09,02,08,18.30
2010,07,09,02,09,18.30
2010,07,09,02,10,18.30
2010,07,09,02,11,18.30
2010,07,09,02,12,18.30
2010,07,09,02,13,18.30
2010,07,09,02,14,18.30
2010,07,09,02,15,18.30
2010,07,09,02,16,18.30
2010,07,09,02,17,18.30
2010,07,09,02,18,18.30
2010,07,09,02,19,18.30
2010,07,09,02,20,18.30
2010,07,09,02,21,18.30
2010,07,09,02,22,18.30
2010,07,09,02,23,18.30
2010,07,09,02,24,18.40
2010,07,09,02,25,18.40
2010,07,09,02,26,18.40
2010,07,09,02,27,18.40
2010,07,09,02,28,18.30
2010,07,09,02,29,18.30
2010,07,09,02,30,18.30
2010,07,09,02,31,18.30
2010,07,09,02,32,18.30
2010,07,09,02,33,18.20
2010,07,09,02,34,18.20
2010,07,09,02,35,18.20
2010,07,09,02,36,18.20
2010,07,09,02,37,18.20
2010,07,09,02,38,18.20
2010,07,09,02,39,18.20
2010,07,09,02,40,18.20
2010,07,09,02,41,18.20
2010,07,09,02,42,18.20
2010,07,09,02,43,18.20
2010,07,09,02,44,18.20
2010,07,09,02,45,18.20
2010,07,09,02,46,18.20
2010,07,09,02,47,18.20
2010,07,09,02,48,18.20
2010,07,09,02,49,18.10
2010,07,09,02,50,18.10
2010,07,09,02,51,18.00
2010,07,09,02,52,17.90
2010,07,09,02,53,17.90
2010,07,09,02,54,17.90
2010,07,09,02,55,17.90
2010,07,09,02,56,17.90
2010,07,09,02,57,17.90
2010,07,09,02,58,17.90
2010,07,09,02,59,17.90
2010,07,09,03,00,17.90
2010,07,09,03,01,17.90
2010,07,09,03,02,17.90
2010,07,09,03,03,17.80
2010,07,09,03,04,17.80
2010,07,09,03,05,17.80
2010,07,09,03,06,17.80
2010,07,09,03,07,17.80
2010,07,09,03,08,17.80
2010,07,09,03,09,17.80
2010,07,09,03,10,17.80
2010,07,09,03,11,17.80
2010,07,09,03,12,17.80
2010,07,09,03,13,17.80
2010,07,09,03,14,17.70
2010,07,09,03,15,17.70
2010,07,09,03,16,17.70
2010,07,09,03,17,17.70
2010,07,09,03,18,17.70
2010,07,09,03,19,17.70
2010,07,09,03,20,17.70
2010,07,09,03,21,17.70
2010,07,09,03,22,17.70
2010,07,09,03,23,17.70
2010,07,09,03,24,17.70
2010,07,09,03,25,17.70
2010,07,09,03,26,17.70
2010,07,09,03,27,17.70
2010,07,09,03,28,17.70
2010,07,09,03,29,17.70
2010,07,09,03,30,17.70
2010,07,09,03,31,17.70
2010,07,09,03,32,17.70
2010,07,09,03,33,17.60
2010,07,09,03,34,17.60
2010,07,09,03,35,17.60
2010,07,09,03,36,17.60
2010,07,09,03,37,17.60
2010,07,09,03,38,17.50
2010,07,09,03,39,17.50
2010,07,09,03,40,17.50
2010,07,09,03,41,17.50
2010,07,09,03,42,17.50
2010,07,09,03,43,17.50
2010,07,09,03,44,17.40
2010,07,09,03,45,17.40
2010,07,09,03,46,17.40
2010,07,09,03,47,17.40
2010,07,09,03,48,17.40
2010,07,09,03,49,17.40
2010,07,09,03,50,17.40
2010,07,09,03,51,17.40
2010,07,09,03,52,17.40
2010,07,09,03,53,17.40
2010,07,09,03,54,17.40
2010,07,09,03,55,17.40
2010,07,09,03,56,17.40
2010,07,09,03,57,17.40
2010,07,09,03,58,17.40
2010,07,09,03,59,17.40
2010,07,09,04,00,17.40
2010,07,09,04,01,17.40
2010,07,09,04,02,17.40
2010,07,09,04,03,17.40
2010,07,09,04,04,17.40
2010,07,09,04,05,17.40
2010,07,09,04,06,17.30
2010,07,09,04,07,17.30
2010,07,09,04,08,17.30
2010,07,09,04,09,17.30
2010,07,09,04,10,17.30
2010,07,09,04,11,17.30
2010,07,09,04,12,17.30
2010,07,09,04,13,17.30
2010,07,09,04,14,17.30
2010,07,09,04,15,17.20
2010,07,09,04,16,17.20
2010,07,09,04,17,17.20
2010,07,09,04,18,17.20
2010,07,09,04,19,17.20
2010,07,09,04,20,17.20
2010,07,09,04,21,17.20
2010,07,09,04,22,17.20
2010,07,09,04,23,17.20
2010,07,09,04,24,17.20
2010,07,09,04,25,17.20
2010,07,09,04,26,17.20
2010,07,09,04,27,17.20
2010,07,09,04,28,17.20
2010,07,09,04,29,17.20
2010,07,09,04,30,17.20
2010,07,09,04,31,17.20
2010,07,09,04,32,17.20
2010,07,09,04,33,17.20
2010,07,09,04,34,17.20
2010,07,09,04,35,17.20
2010,07,09,04,36,17.20
2010,07,09,04,37,17.10
2010,07,09,04,38,17.10
2010,07,09,04,39,17.10
2010,07,09,04,40,17.00
2010,07,09,04,41,17.00
2010,07,09,04,42,17.00
2010,07,09,04,43,17.00
2010,07,09,04,44,17.00
2010,07,09,04,45,17.00
2010,07,09,04,46,16.90
2010,07,09,04,47,16.90
2010,07,09,04,48,16.90
2010,07,09,04,49,16.90
2010,07,09,04,50,16.90
2010,07,09,04,51,16.80
2010,07,09,04,52,16.80
2010,07,09,04,53,16.80
2010,07,09,04,54,16.70
2010,07,09,04,55,16.70
2010,07,09,04,56,16.70
2010,07,09,04,57,16.70
2010,07,09,04,58,16.70
2010,07,09,04,59,16.70
2010,07,09,05,00,16.70
2010,07,09,05,01,16.70
2010,07,09,05,02,16.70
2010,07,09,05,03,16.70
2010,07,09,05,04,16.70
2010,07,09,05,05,16.70
2010,07,09,05,06,16.70
2010,07,09,05,07,16.70
2010,07,09,05,08,16.70
2010,07,09,05,09,16.70
2010,07,09,05,10,16.70
2010,07,09,05,11,16.60
2010,07,09,05,12,16.60
2010,07,09,05,13,16.50
2010,07,09,05,14,16.40
2010,07,09,05,15,16.40
2010,07,09,05,16,16.40
2010,07,09,05,17,16.40
2010,07,09,05,18,16.30
2010,07,09,05,19,16.30
2010,07,09,05,20,16.30
2010,07,09,05,21,16.20
2010,07,09,05,22,16.20
2010,07,09,05,23,16.20
2010,07,09,05,24,16.20
2010,07,09,05,25,16.10
2010,07,09,05,26,16.10
2010,07,09,05,27,16.10
2010,07,09,05,28,16.00
2010,07,09,05,29,15.90
2010,07,09,05,30,15.90
2010,07,09,05,31,15.80
2010,07,09,05,32,15.70
2010,07,09,05,33,15.60
2010,07,09,05,34,15.50
2010,07,09,05,35,15.50
2010,07,09,05,36,15.40
2010,07,09,05,37,15.40
2010,07,09,05,38,15.30
2010,07,09,05,39,15.30
2010,07,09,05,40,15.30
2010,07,09,05,41,15.30
2010,07,09,05,42,15.30
2010,07,09,05,43,15.30
2010,07,09,05,44,15.30
2010,07,09,05,45,15.20
2010,07,09,05,46,15.20
2010,07,09,05,47,15.20
2010,07,09,05,48,15.20
2010,07,09,05,49,15.20
2010,07,09,05,50,15.20
2010,07,09,05,51,15.20
2010,07,09,05,52,15.10
2010,07,09,05,53,15.10
2010,07,09,05,54,15.10
2010,07,09,05,55,15.10
2010,07,09,05,56,15.10
2010,07,09,05,57,15.10
2010,07,09,05,58,15.10
2010,07,09,05,59,15.10
2010,07,09,06,00,15.10
2010,07,09,06,01,15.10
2010,07,09,06,02,15.10
2010,07,09,06,03,15.10
2010,07,09,06,04,15.20
2010,07,09,06,05,15.20
2010,07,09,06,06,15.20
2010,07,09,06,07,15.20
2010,07,09,06,08,15.20
2010,07,09,06,09,15.20
2010,07,09,06,10,15.20
2010,07,09,06,11,15.20
2010,07,09,06,12,15.30
2010,07,09,06,13,15.30
2010,07,09,06,14,15.30
2010,07,09,06,15,15.30
2010,07,09,06,16,15.30
2010,07,09,06,17,15.30
2010,07,09,06,18,15.40
2010,07,09,06,19,15.40
2010,07,09,06,20,15.40
2010,07,09,06,21,15.50
2010,07,09,06,22,15.50
2010,07,09,06,23,15.50
2010,07,09,06,24,15.60
2010,07,09,06,25,15.70
2010,07,09,06,26,15.70
2010,07,09,06,27,15.80
2010,07,09,06,28,15.80
2010,07,09,06,29,15.90
2010,07,09,06,30,15.90
2010,07,09,06,31,16.10
2010,07,09,06,32,16.10
2010,07,09,06,33,16.20
2010,07,09,06,34,16.20
2010,07,09,06,35,16.30
2010,07,09,06,36,16.40
2010,07,09,06,37,16.60
2010,07,09,06,38,16.70
2010,07,09,06,39,16.80
2010,07,09,06,40,16.90
2010,07,09,06,41,16.90
2010,07,09,06,42,17.00
2010,07,09,06,43,17.10
2010,07,09,06,44,17.20
2010,07,09,06,45,17.20
2010,07,09,06,46,17.30
2010,07,09,06,47,17.30
2010,07,09,06,48,17.30
2010,07,09,06,49,17.40
2010,07,09,06,50,17.40
2010,07,09,06,51,17.50
2010,07,09,06,52,17.50
2010,07,09,06,53,17.70
2010,07,09,06,54,17.80
2010,07,09,06,55,17.90
2010,07,09,06,56,18.00
2010,07,09,06,57,18.10
2010,07,09,06,58,18.20
2010,07,09,06,59,18.30
2010,07,09,07,00,18.30
2010,07,09,07,01,18.40
2010,07,09,07,02,18.40
2010,07,09,07,03,18.40
2010,07,09,07,04,18.50
2010,07,09,07,05,18.60
2010,07,09,07,06,18.70
2010,07,09,07,07,18.70
2010,07,09,07,08,18.80
2010,07,09,07,09,18.90
2010,07,09,07,10,18.90
2010,07,09,07,11,19.00
2010,07,09,07,12,19.10
2010,07,09,07,13,19.20
2010,07,09,07,14,19.20
2010,07,09,07,15,19.30
2010,07,09,07,16,19.30
2010,07,09,07,17,19.30
2010,07,09,07,18,19.30
2010,07,09,07,19,19.30
2010,07,09,07,20,19.40
2010,07,09,07,21,19.40
2010,07,09,07,22,19.50
2010,07,09,07,23,19.60
2010,07,09,07,24,19.70
2010,07,09,07,25,19.70
2010,07,09,07,26,19.80
2010,07,09,07,27,19.80
2010,07,09,07,28,19.90
2010,07,09,07,29,19.90
2010,07,09,07,30,19.90
2010,07,09,07,31,19.90
2010,07,09,07,32,19.90
2010,07,09,07,33,19.90
2010,07,09,07,34,19.90
2010,07,09,07,35,19.90
2010,07,09,07,36,20.00
2010,07,09,07,37,20.10
2010,07,09,07,38,20.10
2010,07,09,07,39,20.10
2010,07,09,07,40,20.20
2010,07,09,07,41,20.30
2010,07,09,07,42,20.40
2010,07,09,07,43,20.50
2010,07,09,07,44,20.50
2010,07,09,07,45,20.60
2010,07,09,07,46,20.60
2010,07,09,07,47,20.70
2010,07,09,07,48,20.70
2010,07,09,07,49,20.70
2010,07,09,07,50,20.80
2010,07,09,07,51,20.80
2010,07,09,07,52,20.90
2010,07,09,07,53,21.00
2010,07,09,07,54,21.10
2010,07,09,07,55,21.20
2010,07,09,07,56,21.30
2010,07,09,07,57,21.40
2010,07,09,07,58,21.40
2010,07,09,07,59,21.60
2010,07,09,08,00,21.60
2010,07,09,08,01,21.60
2010,07,09,08,02,21.80
2010,07,09,08,03,21.90
2010,07,09,08,04,22.00
2010,07,09,08,05,22.10
2010,07,09,08,06,22.20
2010,07,09,08,07,22.30
2010,07,09,08,08,22.40
2010,07,09,08,09,22.50
2010,07,09,08,10,22.60
2010,07,09,08,11,22.70
2010,07,09,08,12,22.80
2010,07,09,08,13,22.90
2010,07,09,08,14,22.90
2010,07,09,08,15,22.90
2010,07,09,08,16,23.10
2010,07,09,08,17,23.10
2010,07,09,08,18,23.10
2010,07,09,08,19,23.10
2010,07,09,08,20,23.10
2010,07,09,08,21,23.10
2010,07,09,08,22,23.20
2010,07,09,08,23,23.20
2010,07,09,08,24,23.30
2010,07,09,08,25,23.30
2010,07,09,08,26,23.30
2010,07,09,08,27,23.30
2010,07,09,08,28,23.40
2010,07,09,08,29,23.40
2010,07,09,08,30,23.60
2010,07,09,08,31,23.60
2010,07,09,08,32,23.60
2010,07,09,08,33,23.60
2010,07,09,08,34,23.60
2010,07,09,08,35,23.60
2010,07,09,08,36,23.70
2010,07,09,08,37,23.70
2010,07,09,08,38,23.70
2010,07,09,08,39,23.70
2010,07,09,08,40,23.80
2010,07,09,08,41,23.90
2010,07,09,08,42,24.10
2010,07,09,08,43,24.30
2010,07,09,08,44,24.40
2010,07,09,08,45,24.60
2010,07,09,08,46,24.70
2010,07,09,08,47,24.80
2010,07,09,08,48,25.00
2010,07,09,08,49,25.10
2010,07,09,08,50,25.20
2010,07,09,08,51,25.30
2010,07,09,08,52,25.30
2010,07,09,08,53,25.40
2010,07,09,08,54,25.40
2010,07,09,08,55,25.40
2010,07,09,08,56,25.50
2010,07,09,08,57,25.30
2010,07,09,08,58,25.10
2010,07,09,08,59,24.80
2010,07,09,09,00,24.60
2010,07,09,09,01,24.40
2010,07,09,09,02,24.20
2010,07,09,09,03,24.10
2010,07,09,09,04,24.00
2010,07,09,09,05,23.80
2010,07,09,09,06,23.70
2010,07,09,09,07,23.50
2010,07,09,09,08,23.10
2010,07,09,09,09,22.80
2010,07,09,09,10,22.60
2010,07,09,09,11,22.30
2010,07,09,09,12,22.10
2010,07,09,09,13,21.90
2010,07,09,09,14,21.70
2010,07,09,09,15,21.60
2010,07,09,09,16,21.50
2010,07,09,09,17,21.30
2010,07,09,09,18,21.20
2010,07,09,09,19,21.00
2010,07,09,09,20,20.80
2010,07,09,09,21,20.80
2010,07,09,09,22,20.70
2010,07,09,09,23,20.70
2010,07,09,09,24,20.60
2010,07,09,09,25,20.50
2010,07,09,09,26,20.40
2010,07,09,09,27,20.40
2010,07,09,09,28,20.40
2010,07,09,09,29,20.40
2010,07,09,09,30,20.40
2010,07,09,09,31,20.40
2010,07,09,09,32,20.40
2010,07,09,09,33,20.30
2010,07,09,09,34,20.40
2010,07,09,09,35,20.40
2010,07,09,09,36,20.50
2010,07,09,09,37,20.60
2010,07,09,09,38,20.70
2010,07,09,09,39,20.70
2010,07,09,09,40,20.70
2010,07,09,09,41,20.70
2010,07,09,09,42,20.80
2010,07,09,09,43,20.80
2010,07,09,09,44,20.80
2010,07,09,09,45,20.80
2010,07,09,09,46,20.90
2010,07,09,09,47,20.90
2010,07,09,09,48,21.00
2010,07,09,09,49,21.10
2010,07,09,09,50,21.20
2010,07,09,09,51,21.30
2010,07,09,09,52,21.30
2010,07,09,09,53,21.40
2010,07,09,09,54,21.60
2010,07,09,09,55,21.70
2010,07,09,09,56,21.70
2010,07,09,09,57,21.70
2010,07,09,09,58,21.70
2010,07,09,09,59,21.70
2010,07,09,10,00,21.70
2010,07,09,10,01,21.70
2010,07,09,10,02,21.60
2010,07,09,10,03,21.70
2010,07,09,10,04,21.80
2010,07,09,10,05,21.80
2010,07,09,10,06,21.90
2010,07,09,10,07,22.00
2010,07,09,10,08,22.20
2010,07,09,10,09,22.20
2010,07,09,10,10,22.40
2010,07,09,10,11,22.50
2010,07,09,10,12,22.70
2010,07,09,10,13,22.90
2010,07,09,10,14,23.10
2010,07,09,10,15,23.20
2010,07,09,10,16,23.30
2010,07,09,10,17,23.40
2010,07,09,10,18,23.50
2010,07,09,10,19,23.60
2010,07,09,10,20,23.60
2010,07,09,10,21,23.70
2010,07,09,10,22,23.70
2010,07,09,10,23,23.70
2010,07,09,10,24,23.70
2010,07,09,10,25,23.70
2010,07,09,10,26,23.70
2010,07,09,10,27,23.70
2010,07,09,10,28,23.80
2010,07,09,10,29,23.80
2010,07,09,10,30,23.80
2010,07,09,10,31,23.80
2010,07,09,10,32,23.90
2010,07,09,10,33,23.90
2010,07,09,10,34,23.90
2010,07,09,10,35,23.90
2010,07,09,10,36,23.90
2010,07,09,10,37,23.90
2010,07,09,10,38,23.90
2010,07,09,10,39,23.80
2010,07,09,10,40,23.80
2010,07,09,10,41,23.70
2010,07,09,10,42,23.80
2010,07,09,10,43,23.80
2010,07,09,10,44,23.90
2010,07,09,10,45,23.90
2010,07,09,10,46,24.00
2010,07,09,10,47,24.10
2010,07,09,10,48,24.10
2010,07,09,10,49,24.10
2010,07,09,10,50,24.00
2010,07,09,10,51,23.90
2010,07,09,10,52,24.10
2010,07,09,10,53,24.10
2010,07,09,10,54,24.10
2010,07,09,10,55,24.10
2010,07,09,10,56,24.10
2010,07,09,10,57,24.10
2010,07,09,10,58,24.10
2010,07,09,10,59,24.10
2010,07,09,11,00,24.00
2010,07,09,11,01,24.10
2010,07,09,11,02,24.10
2010,07,09,11,03,24.10
2010,07,09,11,04,24.10
2010,07,09,11,05,24.10
2010,07,09,11,06,24.10
2010,07,09,11,07,24.10
2010,07,09,11,08,24.10
2010,07,09,11,09,24.00
2010,07,09,11,10,23.90
2010,07,09,11,11,24.00
2010,07,09,11,12,24.00
2010,07,09,11,13,24.00
2010,07,09,11,14,24.10
2010,07,09,11,15,24.10
2010,07,09,11,16,24.10
2010,07,09,11,17,24.10
2010,07,09,11,18,24.10
2010,07,09,11,19,24.10
2010,07,09,11,20,24.10
2010,07,09,11,21,24.20
2010,07,09,11,22,24.20
2010,07,09,11,23,24.20
2010,07,09,11,24,24.30
2010,07,09,11,25,24.40
2010,07,09,11,26,24.50
2010,07,09,11,27,24.40
2010,07,09,11,28,24.30
2010,07,09,11,29,24.20
2010,07,09,11,30,24.20
2010,07,09,11,31,24.10
2010,07,09,11,32,24.30
2010,07,09,11,33,24.40
2010,07,09,11,34,24.50
2010,07,09,11,35,24.50
2010,07,09,11,36,24.40
2010,07,09,11,37,24.30
2010,07,09,11,38,24.30
2010,07,09,11,39,24.20
2010,07,09,11,40,24.10
2010,07,09,11,41,24.10
2010,07,09,11,42,24.00
2010,07,09,11,43,23.90
2010,07,09,11,44,23.80
2010,07,09,11,45,23.80
2010,07,09,11,46,23.80
2010,07,09,11,47,23.70
2010,07,09,11,48,23.70
2010,07,09,11,49,23.70
2010,07,09,11,50,23.70
2010,07,09,11,51,23.80
2010,07,09,11,52,24.00
2010,07,09,11,53,24.10
2010,07,09,11,54,24.30
2010,07,09,11,55,24.40
2010,07,09,11,56,24.40
2010,07,09,11,57,24.20
2010,07,09,11,58,24.20
2010,07,09,11,59,24.30
2010,07,09,12,00,24.40
2010,07,09,12,01,24.40
2010,07,09,12,02,24.50
2010,07,09,12,03,24.50
2010,07,09,12,04,24.50
2010,07,09,12,05,24.50
2010,07,09,12,06,24.40
2010,07,09,12,07,24.50
2010,07,09,12,08,24.60
2010,07,09,12,09,24.60
2010,07,09,12,10,24.60
2010,07,09,12,11,24.60
2010,07,09,12,12,24.60
2010,07,09,12,13,24.60
2010,07,09,12,14,24.60
2010,07,09,12,15,24.60
2010,07,09,12,16,24.80
2010,07,09,12,17,24.80
2010,07,09,12,18,24.90
2010,07,09,12,19,24.90
2010,07,09,12,20,24.90
2010,07,09,12,21,24.90
2010,07,09,12,22,25.00
2010,07,09,12,23,24.90
2010,07,09,12,24,25.00
2010,07,09,12,25,25.00
2010,07,09,12,26,25.10
2010,07,09,12,27,25.30
2010,07,09,12,28,25.40
2010,07,09,12,29,25.40
2010,07,09,12,30,25.40
2010,07,09,12,31,25.30
2010,07,09,12,32,25.40
2010,07,09,12,33,25.40
2010,07,09,12,34,25.20
2010,07,09,12,35,25.00
2010,07,09,12,36,24.90
2010,07,09,12,37,24.90
2010,07,09,12,38,24.90
2010,07,09,12,39,24.90
2010,07,09,12,40,25.00
2010,07,09,12,41,25.00
2010,07,09,12,42,25.00
2010,07,09,12,43,25.00
2010,07,09,12,44,25.00
2010,07,09,12,45,25.00
2010,07,09,12,46,25.00
2010,07,09,12,47,25.10
2010,07,09,12,48,25.20
2010,07,09,12,49,25.30
2010,07,09,12,50,25.40
2010,07,09,12,51,25.40
2010,07,09,12,52,25.40
2010,07,09,12,53,25.50
2010,07,09,12,54,25.60
2010,07,09,12,55,25.70
2010,07,09,12,56,25.70
2010,07,09,12,57,25.70
2010,07,09,12,58,25.80
2010,07,09,12,59,25.70
2010,07,09,13,00,25.70
2010,07,09,13,01,25.70
2010,07,09,13,02,25.80
2010,07,09,13,03,25.90
2010,07,09,13,04,26.00
2010,07,09,13,05,26.00
2010,07,09,13,06,26.00
2010,07,09,13,07,26.00
2010,07,09,13,08,25.90
2010,07,09,13,09,25.80
2010,07,09,13,10,25.70
2010,07,09,13,11,25.60
2010,07,09,13,12,25.60
2010,07,09,13,13,25.60
2010,07,09,13,14,25.60
2010,07,09,13,15,25.60
2010,07,09,13,16,25.60
2010,07,09,13,17,25.70
2010,07,09,13,18,25.80
2010,07,09,13,19,25.80
2010,07,09,13,20,25.80
2010,07,09,13,21,25.70
2010,07,09,13,22,25.70
2010,07,09,13,23,25.70
2010,07,09,13,24,25.80
2010,07,09,13,25,25.70
2010,07,09,13,26,25.50
2010,07,09,13,27,25.40
2010,07,09,13,28,25.30
2010,07,09,13,29,25.30
2010,07,09,13,30,25.10
2010,07,09,13,31,25.10
2010,07,09,13,32,25.10
2010,07,09,13,33,25.20
2010,07,09,13,34,25.20
2010,07,09,13,35,25.30
2010,07,09,13,36,25.40
2010,07,09,13,37,25.50
2010,07,09,13,38,25.50
2010,07,09,13,39,25.60
2010,07,09,13,40,25.60
2010,07,09,13,41,25.60
2010,07,09,13,42,25.60
2010,07,09,13,43,25.60
2010,07,09,13,44,25.60
2010,07,09,13,45,25.60
2010,07,09,13,46,25.50
2010,07,09,13,47,25.40
2010,07,09,13,48,25.40
2010,07,09,13,49,25.50
2010,07,09,13,50,25.70
2010,07,09,13,51,25.90
2010,07,09,13,52,26.10
2010,07,09,13,53,26.20
2010,07,09,13,54,26.30
2010,07,09,13,55,26.30
2010,07,09,13,56,26.40
2010,07,09,13,57,26.50
2010,07,09,13,58,26.60
2010,07,09,13,59,26.60
2010,07,09,14,00,26.60
2010,07,09,14,01,26.60
2010,07,09,14,02,26.60
2010,07,09,14,03,26.70
2010,07,09,14,04,26.60
2010,07,09,14,05,26.60
2010,07,09,14,06,26.50
2010,07,09,14,07,26.40
2010,07,09,14,08,26.30
2010,07,09,14,09,26.10
2010,07,09,14,10,26.00
2010,07,09,14,11,26.00
2010,07,09,14,12,26.00
2010,07,09,14,13,25.90
2010,07,09,14,14,25.70
2010,07,09,14,15,25.50
2010,07,09,14,16,25.40
2010,07,09,14,17,25.30
2010,07,09,14,18,25.30
2010,07,09,14,19,25.40
2010,07,09,14,20,25.50
2010,07,09,14,21,25.50
2010,07,09,14,22,25.60
2010,07,09,14,23,25.60
2010,07,09,14,24,25.70
2010,07,09,14,25,25.60
2010,07,09,14,26,25.70
2010,07,09,14,27,25.80
2010,07,09,14,28,25.80
2010,07,09,14,29,25.90
2010,07,09,14,30,25.90
2010,07,09,14,31,25.90
2010,07,09,14,32,26.00
2010,07,09,14,33,25.90
2010,07,09,14,34,26.00
2010,07,09,14,35,26.00
2010,07,09,14,36,25.90
2010,07,09,14,37,25.90
2010,07,09,14,38,25.90
2010,07,09,14,39,25.90
2010,07,09,14,40,26.10
2010,07,09,14,41,26.10
2010,07,09,14,42,26.10
2010,07,09,14,43,26.00
2010,07,09,14,44,26.00
2010,07,09,14,45,25.90
2010,07,09,14,46,25.80
2010,07,09,14,47,25.70
2010,07,09,14,48,25.60
2010,07,09,14,49,25.50
2010,07,09,14,50,25.40
2010,07,09,14,51,25.30
2010,07,09,14,52,25.40
2010,07,09,14,53,25.40
2010,07,09,14,54,25.40
2010,07,09,14,55,25.60
2010,07,09,14,56,25.70
2010,07,09,14,57,25.90
2010,07,09,14,58,26.00
2010,07,09,14,59,26.20
2010,07,09,15,00,26.40
2010,07,09,15,01,26.50
2010,07,09,15,02,26.60
2010,07,09,15,03,26.60
2010,07,09,15,04,26.50
2010,07,09,15,05,26.40
2010,07,09,15,06,26.20
2010,07,09,15,07,26.00
2010,07,09,15,08,26.00
2010,07,09,15,09,25.90
2010,07,09,15,10,25.90
2010,07,09,15,11,26.00
2010,07,09,15,12,25.90
2010,07,09,15,13,25.90
2010,07,09,15,14,26.00
2010,07,09,15,15,26.00
2010,07,09,15,16,26.00
2010,07,09,15,17,25.90
2010,07,09,15,18,25.80
2010,07,09,15,19,25.90
2010,07,09,15,20,25.90
2010,07,09,15,21,25.80
2010,07,09,15,22,25.90
2010,07,09,15,23,26.00
2010,07,09,15,24,26.10
2010,07,09,15,25,26.00
2010,07,09,15,26,26.10
2010,07,09,15,27,26.30
2010,07,09,15,28,26.40
2010,07,09,15,29,26.40
2010,07,09,15,30,26.40
2010,07,09,15,31,26.30
2010,07,09,15,32,26.30
2010,07,09,15,33,26.20
2010,07,09,15,34,26.20
2010,07,09,15,35,26.20
2010,07,09,15,36,26.10
2010,07,09,15,37,26.00
2010,07,09,15,38,25.90
2010,07,09,15,39,25.90
2010,07,09,15,40,25.90
2010,07,09,15,41,25.80
2010,07,09,15,42,25.80
2010,07,09,15,43,25.70
2010,07,09,15,44,25.70
2010,07,09,15,45,25.60
2010,07,09,15,46,25.60
2010,07,09,15,47,25.70
2010,07,09,15,48,25.80
2010,07,09,15,49,25.80
2010,07,09,15,50,25.80
2010,07,09,15,51,25.70
2010,07,09,15,52,25.70
2010,07,09,15,53,25.70
2010,07,09,15,54,25.70
2010,07,09,15,55,25.60
2010,07,09,15,56,25.50
2010,07,09,15,57,25.50
2010,07,09,15,58,25.60
2010,07,09,15,59,25.70
2010,07,09,16,00,25.60
2010,07,09,16,01,25.60
2010,07,09,16,02,25.60
2010,07,09,16,03,25.60
2010,07,09,16,04,25.60
2010,07,09,16,05,25.70
2010,07,09,16,06,25.80
2010,07,09,16,07,25.90
2010,07,09,16,08,25.90
2010,07,09,16,09,25.90
2010,07,09,16,10,25.90
2010,07,09,16,11,26.00
2010,07,09,16,12,25.90
2010,07,09,16,13,25.80
2010,07,09,16,14,25.80
2010,07,09,16,15,25.60
2010,07,09,16,16,25.50
2010,07,09,16,17,25.50
2010,07,09,16,18,25.40
2010,07,09,16,19,25.50
2010,07,09,16,20,25.50
2010,07,09,16,21,25.50
2010,07,09,16,22,25.60
2010,07,09,16,23,25.80
2010,07,09,16,24,25.90
2010,07,09,16,25,25.90
2010,07,09,16,26,26.10
2010,07,09,16,27,26.20
2010,07,09,16,28,26.20
2010,07,09,16,29,26.30
2010,07,09,16,30,26.40
2010,07,09,16,31,26.50
2010,07,09,16,32,26.40
2010,07,09,16,33,26.40
2010,07,09,16,34,26.30
2010,07,09,16,35,26.40
2010,07,09,16,36,26.40
2010,07,09,16,37,26.40
2010,07,09,16,38,26.50
2010,07,09,16,39,26.70
2010,07,09,16,40,26.80
2010,07,09,16,41,26.80
2010,07,09,16,42,26.80
2010,07,09,16,43,26.80
2010,07,09,16,44,26.80
2010,07,09,16,45,26.80
2010,07,09,16,46,26.90
2010,07,09,16,47,26.90
2010,07,09,16,48,26.80
2010,07,09,16,49,26.70
2010,07,09,16,50,26.60
2010,07,09,16,51,26.60
2010,07,09,16,52,26.50
2010,07,09,16,53,26.30
2010,07,09,16,54,26.00
2010,07,09,16,55,25.90
2010,07,09,16,56,25.80
2010,07,09,16,57,25.60
2010,07,09,16,58,25.40
2010,07,09,16,59,25.30
2010,07,09,17,00,25.20
2010,07,09,17,01,25.20
2010,07,09,17,02,25.20
2010,07,09,17,03,25.20
2010,07,09,17,04,25.20
2010,07,09,17,05,25.20
2010,07,09,17,06,25.20
2010,07,09,17,07,25.20
2010,07,09,17,08,25.20
2010,07,09,17,09,25.30
2010,07,09,17,10,25.30
2010,07,09,17,11,25.40
2010,07,09,17,12,25.40
2010,07,09,17,13,25.40
2010,07,09,17,14,25.40
2010,07,09,17,15,25.40
2010,07,09,17,16,25.40
2010,07,09,17,17,25.40
2010,07,09,17,18,25.40
2010,07,09,17,19,25.40